Weather History for KBDH - March, 2013

Change the Weather History Date:

Tuesday, March 12, 2013

  Actual Average (KLJF) Record (KLJF)
Temperature  
Mean Temperature 24 °F -  
Max Temperature 30 °F 36 °F 67 °F (1990)
Min Temperature 19 °F 20 °F -11 °F (1956)
Degree Days  
Heating Degree Days 40    
Moisture  
Dew Point 13 °F    
Average Humidity 60    
Maximum Humidity 69    
Minimum Humidity 51    
Precipitation  
Precipitation 0.00 in - - ()
Sea Level Pressure  
Sea Level Pressure 30.03 in    
Wind  
Wind Speed 17 mph (NW)    
Max Wind Speed 31 mph    
Max Gust Speed 36 mph    
Visibility 9 miles    
Events Snow    
Averages and records for this station are not official NWS values.
T = Trace of Precipitation, MM = Missing Value Source: NWS Daily Summary

Daily Weather History Graph

Daily Weather History Graph

Search for Another Location

Airport or City:

Trip Planner

Search our weather history database for the weather conditions in past years. The results will help you decide how hot, cold, wet, or windy it might be!

Date:

Astronomy

Mar. 12, 2013 Rise Set
Actual Time 7:38 AM CDT 7:22 PM CDT
Civil Twilight 7:08 AM CDT 7:52 PM CDT
Nautical Twilight 6:34 AM CDT 8:26 PM CDT
Astronomical Twilight 6:00 AM CDT 9:01 PM CDT
Moon 7:40 AM CDT (3/12) 8:44 PM CDT (3/12)
Length of Visible Light 12h 43m
Length of Day
11h 44m
New Moon, 1% of the Moon is Illuminated
Mar 12
New Moon
Mar 19
First Quarter
Mar 27
Full
Apr 2
Last Quarter
Apr 10
New

Hourly Weather History & Observations

Time (CDT) Temp. Windchill Dew Point Humidity Pressure Visibility Wind Dir Wind Speed Gust Speed Precip Events Conditions
12:14 AM 28.4 °F 20.4 °F 15.8 °F 59% 29.84 in 10.0 mi West 8.1 mph - N/A   Overcast
12:35 AM 28.4 °F 16.6 °F 17.6 °F 64% 29.84 in 10.0 mi West 16.1 mph - N/A   Overcast
1:15 AM 30.2 °F 18.9 °F 17.6 °F 60% 29.85 in 10.0 mi West 16.1 mph - N/A   Overcast
1:35 AM 30.2 °F 18.9 °F 19.4 °F 64% 29.85 in 7.0 mi WNW 16.1 mph - N/A   Overcast
1:55 AM 30.2 °F 18.9 °F 19.4 °F 64% 29.85 in 7.0 mi WNW 16.1 mph 19.6 mph N/A   Overcast
2:15 AM 30.2 °F 19.8 °F 19.4 °F 64% 29.85 in 7.0 mi West 13.8 mph - N/A   Overcast
2:35 AM 30.2 °F 18.9 °F 21.2 °F 69% 29.85 in 5.0 mi WNW 16.1 mph 23.0 mph N/A Snow Light Snow
2:55 AM 30.2 °F 19.3 °F 21.2 °F 69% 29.85 in 5.0 mi WNW 15.0 mph - N/A Snow Light Snow
3:15 AM 30.2 °F 19.3 °F 19.4 °F 64% 29.85 in 5.0 mi WNW 15.0 mph 23.0 mph N/A Snow Light Snow
3:55 AM 30.2 °F 19.8 °F 17.6 °F 60% 29.85 in 7.0 mi NW 13.8 mph - N/A   Overcast
4:15 AM 28.4 °F 16.2 °F 17.6 °F 64% 29.85 in 7.0 mi NW 17.3 mph 21.9 mph N/A Snow Light Snow
4:35 AM 28.4 °F 16.6 °F 17.6 °F 64% 29.86 in 7.0 mi NNW 16.1 mph - N/A Snow Light Snow
4:55 AM 26.6 °F 14.3 °F 17.6 °F 69% 29.86 in 7.0 mi NW 16.1 mph - N/A Snow Light Snow
5:15 AM 26.6 °F 15.7 °F 15.8 °F 64% 29.87 in 7.0 mi NNW 12.7 mph - N/A   Overcast
5:35 AM 26.6 °F 16.8 °F 15.8 °F 64% 29.88 in 7.0 mi WNW 10.4 mph - N/A   Overcast
5:55 AM 24.8 °F 11.5 °F 15.8 °F 69% 29.89 in 7.0 mi NW 17.3 mph - N/A   Overcast
6:15 AM 24.8 °F 12.4 °F 15.8 °F 69% 29.90 in 7.0 mi NW 15.0 mph - N/A Snow Light Snow
6:34 AM 23.0 °F 11.1 °F 14.0 °F 68% 29.91 in 7.0 mi NW 12.7 mph - N/A   Scattered Clouds
6:55 AM 21.2 °F 9.5 °F 12.2 °F 68% 29.92 in 7.0 mi NW 11.5 mph - N/A   Mostly Cloudy
7:15 AM 21.2 °F 9.5 °F 12.2 °F 68% 29.92 in 7.0 mi NW 11.5 mph - N/A Snow Light Snow
7:35 AM 21.2 °F 9.5 °F 10.4 °F 63% 29.93 in 7.0 mi NW 11.5 mph - N/A   Mostly Cloudy
7:55 AM 21.2 °F 9.5 °F 10.4 °F 63% 29.94 in 7.0 mi NNW 11.5 mph - N/A   Mostly Cloudy
8:15 AM 21.2 °F 10.1 °F 10.4 °F 63% 29.95 in 10.0 mi NNW 10.4 mph - N/A   Scattered Clouds
8:35 AM 21.2 °F 8.3 °F 10.4 °F 63% 29.95 in 10.0 mi NNW 13.8 mph - N/A   Clear
8:55 AM 21.2 °F 7.8 °F 10.4 °F 63% 29.97 in 10.0 mi NW 15.0 mph - N/A   Clear
9:15 AM 21.2 °F 8.3 °F 10.4 °F 63% 29.98 in 10.0 mi NW 13.8 mph - N/A   Clear
9:35 AM 21.2 °F 7.8 °F 10.4 °F 63% 29.98 in 7.0 mi NW 15.0 mph - N/A   Clear
9:55 AM 23.0 °F 10.1 °F 10.4 °F 59% 29.98 in 10.0 mi NW 15.0 mph - N/A   Clear
10:15 AM 23.0 °F 9.2 °F 12.2 °F 63% 29.99 in 10.0 mi NW 17.3 mph - N/A   Clear
10:35 AM 24.8 °F 10.7 °F 12.2 °F 59% 30.00 in 10.0 mi NW 19.6 mph - N/A   Clear
10:55 AM 24.8 °F 10.0 °F 12.2 °F 59% 30.01 in 10.0 mi NW 21.9 mph - N/A   Clear
11:15 AM 24.8 °F 10.0 °F 12.2 °F 59% 30.02 in 10.0 mi NW 21.9 mph 25.3 mph N/A   Clear
11:35 AM 26.6 °F 12.0 °F 12.2 °F 55% 30.03 in 10.0 mi NW 23.0 mph 26.5 mph N/A   Clear
11:55 AM 26.6 °F 12.4 °F 12.2 °F 55% 30.03 in 10.0 mi NW 21.9 mph 27.6 mph N/A   Scattered Clouds
12:15 PM 26.6 °F 11.4 °F 12.2 °F 55% 30.04 in 7.0 mi NW 25.3 mph 28.8 mph N/A   Scattered Clouds
12:35 PM 26.6 °F 12.4 °F 12.2 °F 55% 30.04 in 10.0 mi NW 21.9 mph - N/A   Clear
12:55 PM 28.4 °F 14.4 °F 14.0 °F 55% 30.04 in 10.0 mi NW 23.0 mph - N/A   Clear
1:15 PM 28.4 °F 13.8 °F 14.0 °F 55% 30.05 in 10.0 mi NW 25.3 mph 28.8 mph N/A   Scattered Clouds
1:35 PM 28.4 °F 13.8 °F 12.2 °F 51% 30.05 in 10.0 mi NW 25.3 mph 33.4 mph N/A   Scattered Clouds
1:55 PM 28.4 °F 14.4 °F 12.2 °F 51% 30.05 in 10.0 mi WNW 23.0 mph 31.1 mph N/A   Clear
2:15 PM 28.4 °F 13.5 °F 12.2 °F 51% 30.05 in 10.0 mi NW 26.5 mph 29.9 mph N/A   Clear
2:35 PM 28.4 °F 13.3 °F 12.2 °F 51% 30.06 in 10.0 mi NW 27.6 mph 34.5 mph N/A   Scattered Clouds
2:55 PM 28.4 °F 13.0 °F 12.2 °F 51% 30.06 in 10.0 mi NW 28.8 mph 34.5 mph N/A   Scattered Clouds
3:15 PM 28.4 °F 13.5 °F 14.0 °F 55% 30.06 in 10.0 mi NW 26.5 mph 33.4 mph N/A   Scattered Clouds
3:35 PM 28.4 °F 13.3 °F 12.2 °F 51% 30.07 in 10.0 mi NW 27.6 mph 34.5 mph N/A   Scattered Clouds
3:55 PM 26.6 °F 10.6 °F 12.2 °F 55% 30.08 in 10.0 mi NW 28.8 mph 35.7 mph N/A   Scattered Clouds
4:15 PM 28.4 °F 12.7 °F 12.2 °F 51% 30.08 in 10.0 mi NW 29.9 mph 35.7 mph N/A   Scattered Clouds
4:35 PM 28.4 °F 12.5 °F 12.2 °F 51% 30.09 in 10.0 mi NW 31.1 mph 34.5 mph N/A   Scattered Clouds
4:55 PM 28.4 °F 13.0 °F 12.2 °F 51% 30.10 in 10.0 mi NW 28.8 mph 35.7 mph N/A   Scattered Clouds
5:15 PM 28.4 °F 13.0 °F 14.0 °F 55% 30.10 in 10.0 mi NW 28.8 mph 34.5 mph N/A   Mostly Cloudy
5:35 PM 26.6 °F 10.6 °F 12.2 °F 55% 30.11 in 10.0 mi NW 28.8 mph 34.5 mph N/A   Scattered Clouds
5:55 PM 26.6 °F 11.7 °F 12.2 °F 55% 30.12 in 10.0 mi NW 24.2 mph 29.9 mph N/A   Clear
6:15 PM 26.6 °F 11.1 °F 12.2 °F 55% 30.13 in 10.0 mi NW 26.5 mph 34.5 mph N/A   Clear
6:35 PM 26.6 °F 12.0 °F 12.2 °F 55% 30.13 in 10.0 mi NW 23.0 mph 28.8 mph N/A   Scattered Clouds
6:55 PM 26.6 °F 13.1 °F 12.2 °F 55% 30.14 in 10.0 mi NW 19.6 mph - N/A   Scattered Clouds
7:15 PM 24.8 °F 9.6 °F 12.2 °F 59% 30.15 in 10.0 mi NW 23.0 mph 28.8 mph N/A   Clear
7:35 PM 24.8 °F 9.6 °F 12.2 °F 59% 30.16 in 10.0 mi NW 23.0 mph - N/A   Clear
7:55 PM 24.8 °F 11.1 °F 12.2 °F 59% 30.17 in 10.0 mi NW 18.4 mph - N/A   Clear
8:15 PM 24.8 °F 10.0 °F 12.2 °F 59% 30.19 in 10.0 mi NW 21.9 mph 26.5 mph N/A   Clear
8:35 PM 24.8 °F 10.0 °F 10.4 °F 54% 30.19 in 10.0 mi NW 21.9 mph 27.6 mph N/A   Clear
8:55 PM 23.0 °F 8.0 °F 10.4 °F 59% 30.20 in 10.0 mi NW 20.7 mph - N/A   Clear
9:15 PM 23.0 °F 8.3 °F 10.4 °F 59% 30.21 in 10.0 mi NW 19.6 mph - N/A   Clear
9:35 PM 21.2 °F 6.4 °F 10.4 °F 63% 30.21 in 10.0 mi NW 18.4 mph - N/A   Clear
9:55 PM 21.2 °F 6.8 °F 10.4 °F 63% 30.22 in 10.0 mi NW 17.3 mph - N/A   Clear
10:15 PM 21.2 °F 6.8 °F 10.4 °F 63% 30.23 in 10.0 mi NW 17.3 mph - N/A   Clear
10:35 PM 21.2 °F 7.3 °F 10.4 °F 63% 30.23 in 10.0 mi NW 16.1 mph - N/A   Clear
10:55 PM 21.2 °F 7.3 °F 10.4 °F 63% 30.23 in 10.0 mi NNW 16.1 mph - N/A   Clear
11:15 PM 19.4 °F 6.6 °F 8.6 °F 63% 30.24 in 10.0 mi NW 12.7 mph - N/A   Clear
11:35 PM 19.4 °F 6.0 °F 8.6 °F 63% 30.25 in 10.0 mi NW 13.8 mph - N/A   Clear
11:55 PM 19.4 °F 6.6 °F 8.6 °F 63% 30.25 in 10.0 mi NW 12.7 mph - N/A   Clear